Maersk Varna — 9V8838 — position and weather

sailwx.info

Track history (hours):
 
Tides and Currents Weather Stations Pressure Air Temp Water Temp Dewpoint Dewpoint Depression Visibility Wind Speed Wind Dir Waves Ship Positions

Maersk Varna

Last reported at 2017-Nov-17 20:44 UTC. Time now 2017-Nov-17 21:20 UTC.
Position N 39°15' W 076°33'.

Length 180 m; draft 8.1 m.

Type: Ship (hazmat cat A). MMSI: 564822000.

Date/timePositionNaut miles runAvg speedWind from/ knotsBaromVisibWave heightAir tempDewpointWater temp
2017-Nov-17 20:44N 39°15' W 076°33'0 0.0
2017-Nov-17 20:29N 39°15' W 076°33'0 0.0
2017-Nov-17 19:59N 39°15' W 076°33'0 0.0
2017-Nov-17 19:29N 39°15' W 076°33'0 0.0
2017-Nov-17 18:59N 39°15' W 076°33'0 0.0
2017-Nov-17 18:29N 39°15' W 076°33'0 0.0
2017-Nov-17 17:59N 39°15' W 076°33'0 0.0
2017-Nov-17 17:29N 39°15' W 076°33'0 0.0
2017-Nov-17 16:59N 39°15' W 076°33'0 0.0
2017-Nov-17 16:23N 39°15' W 076°33'0 0.0
2017-Nov-17 15:59N 39°15' W 076°33'0 0.0
2017-Nov-17 15:29N 39°15' W 076°33'0 0.0
2017-Nov-17 14:59N 39°15' W 076°33'0 0.0
2017-Nov-17 14:20N 39°15' W 076°33'0 0.0
2017-Nov-17 13:59N 39°15' W 076°33'0 0.0
2017-Nov-17 13:29N 39°15' W 076°33'0 0.0
2017-Nov-17 12:59N 39°15' W 076°33'0 0.0
2017-Nov-17 12:29N 39°15' W 076°33'0 0.6
2017-Nov-17 12:00N 39°15' W 076°33'2 3.4
2017-Nov-17 11:30N 39°13' W 076°32'4 8.4
2017-Nov-17 11:00N 39°11' W 076°28'611.2
2017-Nov-17 10:30N 39°06' W 076°24'714.0
2017-Nov-17 10:00N 38°59' W 076°23'815.5
2017-Nov-17 09:30N 38°52' W 076°24'917.8
2017-Nov-17 09:00N 38°43' W 076°26'10515.8
2017-Nov-17 02:24N 37°00' W 076°01'511.3
2017-Nov-17 01:59N 36°57' W 075°58'5 8.2
2017-Nov-17 01:23N 36°54' W 075°53'5 8.3
2017-Nov-17 00:47N 36°51' W 075°48'13412.6
2017-Nov-16 14:08N 38°46' W 074°20'214.2
2017-Nov-16 13:58N 38°48' W 074°19'714.2
2017-Nov-16 13:31N 38°54' W 074°16'714.1
2017-Nov-16 13:00N 39°01' W 074°13'713.6
2017-Nov-16 12:30N 39°07' W 074°10'713.5
2017-Nov-16 11:59N 39°14' W 074°07'713.5
2017-Nov-16 11:28N 39°20' W 074°04'713.4
2017-Nov-16 10:56N 39°27' W 074°00'613.4
2017-Nov-16 10:29N 39°32' W 073°57'713.2
2017-Nov-16 09:59N 39°39' W 073°54'713.1
2017-Nov-16 09:28N 39°45' W 073°51'613.1
2017-Nov-16 09:00N 39°51' W 073°51'2112.6
2017-Nov-16 07:21N 40°12' W 073°50'410.0
2017-Nov-16 06:57N 40°16' W 073°49'4 9.9
2017-Nov-16 06:30N 40°20' W 073°49'5 9.9
2017-Nov-16 06:00N 40°25' W 073°49'4 7.4
2017-Nov-16 05:29N 40°28' W 073°52'510.9
2017-Nov-16 05:00N 40°30' W 073°58'714.5
2017-Nov-16 04:31N 40°37' W 074°03'4 7.5
2017-Nov-16 04:00N 40°39' W 074°07'2 3.8
2017-Nov-16 03:30N 40°40' W 074°08'1 2.1
2017-Nov-16 03:00N 40°41' W 074°09'0 0.0
2017-Nov-16 02:30N 40°41' W 074°09'0 0.0
2017-Nov-16 02:00N 40°41' W 074°09'0 0.0
2017-Nov-16 01:30N 40°41' W 074°09'0 0.0
2017-Nov-16 00:58N 40°41' W 074°09'0 0.0
2017-Nov-16 00:28N 40°41' W 074°09'0 0.0
2017-Nov-15 23:58N 40°41' W 074°09'0 0.0
2017-Nov-15 23:28N 40°41' W 074°09'0 0.0
2017-Nov-15 22:58N 40°41' W 074°09'0 0.0
2017-Nov-15 22:28N 40°41' W 074°09'0 0.0
2017-Nov-15 21:58N 40°41' W 074°09'0 0.0
2017-Nov-15 21:28N 40°41' W 074°09'0 0.0
2017-Nov-15 20:58N 40°41' W 074°09'0 0.0
2017-Nov-15 20:25N 40°41' W 074°09'0 0.0
2017-Nov-15 19:58N 40°41' W 074°09'0 0.0
2017-Nov-15 19:28N 40°41' W 074°09'0 0.0
2017-Nov-15 18:58N 40°41' W 074°09'0 0.0
2017-Nov-15 18:28N 40°41' W 074°09'0 0.0
2017-Nov-15 17:58N 40°41' W 074°09'0 0.0
2017-Nov-15 17:28N 40°41' W 074°09'0 0.0
2017-Nov-15 16:58N 40°41' W 074°09'0 0.0
2017-Nov-15 16:28N 40°41' W 074°09'0 0.0
2017-Nov-15 15:58N 40°41' W 074°09'0 0.0
2017-Nov-15 15:28N 40°41' W 074°09'0 0.0
2017-Nov-15 14:58N 40°41' W 074°09'0 0.0
2017-Nov-15 14:28N 40°41' W 074°09'0 0.0
2017-Nov-15 13:58N 40°41' W 074°09'0 0.0
2017-Nov-15 13:28N 40°41' W 074°09'0 0.0
2017-Nov-15 12:58N 40°41' W 074°09'0 0.0
2017-Nov-15 12:25N 40°41' W 074°09'0 0.0
2017-Nov-15 11:58N 40°41' W 074°09'0 0.0
2017-Nov-15 11:28N 40°41' W 074°09'0 0.0
2017-Nov-15 11:00N 40°41' W 074°09'2 3.8
2017-Nov-15 10:30N 40°39' W 074°09'3 5.1
2017-Nov-15 10:00N 40°39' W 074°05'3 6.6
2017-Nov-15 09:30N 40°36' W 074°03'612.9
2017-Nov-15 09:00N 40°31' W 073°59'611.3
2017-Nov-15 08:30N 40°28' W 073°52'4 8.1
2017-Nov-15 08:00N 40°26' W 073°47'3 6.0
2017-Nov-15 07:29N 40°24' W 073°44'4 8.3
2017-Nov-15 06:59N 40°22' W 073°39'  
Track history (hours):
 
Tides and Currents Weather Stations Pressure Air Temp Water Temp Dewpoint Dewpoint Depression Visibility Wind Speed Wind Dir Waves Ship Positions

Maersk Varna

Last reported at 2017-Nov-17 20:44 UTC. Time now 2017-Nov-17 21:20 UTC.
Position N 39°15' W 076°33'.

Length 180 m; draft 8.1 m.

Type: Ship (hazmat cat A). MMSI: 564822000.

Date/timePositionNaut miles runAvg speedWind from/ knotsBaromVisibWave heightAir tempDewpointWater temp
2017-Nov-17 20:44N 39°15' W 076°33'0 0.0
2017-Nov-17 20:29N 39°15' W 076°33'0 0.0
2017-Nov-17 19:59N 39°15' W 076°33'0 0.0
2017-Nov-17 19:29N 39°15' W 076°33'0 0.0
2017-Nov-17 18:59N 39°15' W 076°33'0 0.0
2017-Nov-17 18:29N 39°15' W 076°33'0 0.0
2017-Nov-17 17:59N 39°15' W 076°33'0 0.0
2017-Nov-17 17:29N 39°15' W 076°33'0 0.0
2017-Nov-17 16:59N 39°15' W 076°33'0 0.0
2017-Nov-17 16:23N 39°15' W 076°33'0 0.0
2017-Nov-17 15:59N 39°15' W 076°33'0 0.0
2017-Nov-17 15:29N 39°15' W 076°33'0 0.0
2017-Nov-17 14:59N 39°15' W 076°33'0 0.0
2017-Nov-17 14:20N 39°15' W 076°33'0 0.0
2017-Nov-17 13:59N 39°15' W 076°33'0 0.0
2017-Nov-17 13:29N 39°15' W 076°33'0 0.0
2017-Nov-17 12:59N 39°15' W 076°33'0 0.0
2017-Nov-17 12:29N 39°15' W 076°33'0 0.6
2017-Nov-17 12:00N 39°15' W 076°33'2 3.4
2017-Nov-17 11:30N 39°13' W 076°32'4 8.4
2017-Nov-17 11:00N 39°11' W 076°28'611.2
2017-Nov-17 10:30N 39°06' W 076°24'714.0
2017-Nov-17 10:00N 38°59' W 076°23'815.5
2017-Nov-17 09:30N 38°52' W 076°24'917.8
2017-Nov-17 09:00N 38°43' W 076°26'10515.8
2017-Nov-17 02:24N 37°00' W 076°01'511.3
2017-Nov-17 01:59N 36°57' W 075°58'5 8.2
2017-Nov-17 01:23N 36°54' W 075°53'5 8.3
2017-Nov-17 00:47N 36°51' W 075°48'13412.6
2017-Nov-16 14:08N 38°46' W 074°20'214.2
2017-Nov-16 13:58N 38°48' W 074°19'714.2
2017-Nov-16 13:31N 38°54' W 074°16'714.1
2017-Nov-16 13:00N 39°01' W 074°13'713.6
2017-Nov-16 12:30N 39°07' W 074°10'713.5
2017-Nov-16 11:59N 39°14' W 074°07'713.5
2017-Nov-16 11:28N 39°20' W 074°04'713.4
2017-Nov-16 10:56N 39°27' W 074°00'613.4
2017-Nov-16 10:29N 39°32' W 073°57'713.2
2017-Nov-16 09:59N 39°39' W 073°54'713.1
2017-Nov-16 09:28N 39°45' W 073°51'613.1
2017-Nov-16 09:00N 39°51' W 073°51'2112.6
2017-Nov-16 07:21N 40°12' W 073°50'410.0
2017-Nov-16 06:57N 40°16' W 073°49'4 9.9
2017-Nov-16 06:30N 40°20' W 073°49'5 9.9
2017-Nov-16 06:00N 40°25' W 073°49'4 7.4
2017-Nov-16 05:29N 40°28' W 073°52'510.9
2017-Nov-16 05:00N 40°30' W 073°58'714.5
2017-Nov-16 04:31N 40°37' W 074°03'4 7.5
2017-Nov-16 04:00N 40°39' W 074°07'2 3.8
2017-Nov-16 03:30N 40°40' W 074°08'1 2.1
2017-Nov-16 03:00N 40°41' W 074°09'0 0.0
2017-Nov-16 02:30N 40°41' W 074°09'0 0.0
2017-Nov-16 02:00N 40°41' W 074°09'0 0.0
2017-Nov-16 01:30N 40°41' W 074°09'0 0.0
2017-Nov-16 00:58N 40°41' W 074°09'0 0.0
2017-Nov-16 00:28N 40°41' W 074°09'0 0.0
2017-Nov-15 23:58N 40°41' W 074°09'0 0.0
2017-Nov-15 23:28N 40°41' W 074°09'0 0.0
2017-Nov-15 22:58N 40°41' W 074°09'0 0.0
2017-Nov-15 22:28N 40°41' W 074°09'0 0.0
2017-Nov-15 21:58N 40°41' W 074°09'0 0.0
2017-Nov-15 21:28N 40°41' W 074°09'0 0.0
2017-Nov-15 20:58N 40°41' W 074°09'0 0.0
2017-Nov-15 20:25N 40°41' W 074°09'0 0.0
2017-Nov-15 19:58N 40°41' W 074°09'0 0.0
2017-Nov-15 19:28N 40°41' W 074°09'0 0.0
2017-Nov-15 18:58N 40°41' W 074°09'0 0.0
2017-Nov-15 18:28N 40°41' W 074°09'0 0.0
2017-Nov-15 17:58N 40°41' W 074°09'0 0.0
2017-Nov-15 17:28N 40°41' W 074°09'0 0.0
2017-Nov-15 16:58N 40°41' W 074°09'0 0.0
2017-Nov-15 16:28N 40°41' W 074°09'0 0.0
2017-Nov-15 15:58N 40°41' W 074°09'0 0.0
2017-Nov-15 15:28N 40°41' W 074°09'0 0.0
2017-Nov-15 14:58N 40°41' W 074°09'0 0.0
2017-Nov-15 14:28N 40°41' W 074°09'0 0.0
2017-Nov-15 13:58N 40°41' W 074°09'0 0.0
2017-Nov-15 13:28N 40°41' W 074°09'0 0.0
2017-Nov-15 12:58N 40°41' W 074°09'0 0.0
2017-Nov-15 12:25N 40°41' W 074°09'0 0.0
2017-Nov-15 11:58N 40°41' W 074°09'0 0.0
2017-Nov-15 11:28N 40°41' W 074°09'0 0.0
2017-Nov-15 11:00N 40°41' W 074°09'2 3.8
2017-Nov-15 10:30N 40°39' W 074°09'3 5.1
2017-Nov-15 10:00N 40°39' W 074°05'3 6.6
2017-Nov-15 09:30N 40°36' W 074°03'612.9
2017-Nov-15 09:00N 40°31' W 073°59'611.3
2017-Nov-15 08:30N 40°28' W 073°52'4 8.1
2017-Nov-15 08:00N 40°26' W 073°47'3 6.0
2017-Nov-15 07:29N 40°24' W 073°44'4 8.3
2017-Nov-15 06:59N 40°22' W 073°39'  

Dump ship's entire track history